Regional Weather Roundup
Issued by NWS

Home | Current Version | Previous Version | Graphics & Text | Print | Product List | Glossary On
Versions: 1 2 3 4 5 6 7 8 9 10 11 12 13 14 15 16 17 18 19 20 21 22 23 24 25 26 27
000
ASUS45 KCYS 291510
RWRWY

WYOMING REGIONAL WEATHER ROUNDUP
NATIONAL WEATHER SERVICE CHEYENNE WY
900 AM MDT SUN MAY 29 2016

NOTE:  "FAIR" INDICATES FEW OR NO CLOUDS BELOW 12,000 FEET
WITH NO SIGNIFICANT WEATHER AND/OR OBSTRUCTIONS TO VISIBILITY.

WYZ001-291600-
YELLOWSTONE NATIONAL PARK

CITY           SKY/WX    TMP DP  RH WIND       PRES   REMARKS
LK YELLOWSTONE   N/A     39  29  67 CALM      30.27S
W YELLOWSTONE  NOT AVBL

$$
WYZ002>013-054>058-071-098>099-291600-
NORTHERN WYOMING

CITY           SKY/WX    TMP DP  RH WIND       PRES   REMARKS
JACKSON        MOSUNNY   45  30  57 CALM      30.23S
CODY           FAIR      61  36  39 S7        30.11S
GREYBULL       FAIR      59  44  57 VRB5      30.10S
WORLAND        FAIR      59  44  57 VRB3      30.11S
SHERIDAN       FAIR      62  47  57 CALM      30.09R
BUFFALO        FAIR      61  45  55 S15       30.13S
GILLETTE       PTSUNNY   60  47  61 S5        30.11R
HULETT         FAIR      63  46  55 CALM      30.11S
NEWCASTLE      FAIR      64  36  34 E9        30.12S

$$
WYZ014>020-022>026-101>103-291600-
CENTRAL WYOMING

CITY           SKY/WX    TMP DP  RH WIND       PRES   REMARKS
BIG PINEY      FAIR      48  31  51 CALM      30.26R
PINEDALE       FAIR      46  32  57 CALM      30.26R
DUBOIS         FAIR      52  23  32 N14       30.20S
LANDER         FAIR      58  29  33 CALM      30.16R
RIVERTON       FAIR      56  34  43 SW7       30.17R
CASPER         FAIR      55  42  61 W6        30.16R
DOUGLAS          N/A    N/A N/A N/A MISG      30.15R

$$
WYZ021-027>030-104>119-291600-
SOUTHERN WYOMING

CITY           SKY/WX    TMP DP  RH WIND       PRES   REMARKS
EVANSTON       FAIR      53  35  50 E5        30.23S
KEMMERER         N/A     52  34  50 CALM      30.26R
FORT BRIDGER   SUNNY     54  34  47 SE3       30.27R
ROCK SPRINGS   FAIR      51  35  54 W5        30.24S
DIXON          FAIR      55  39  55 CALM      30.26S
RAWLINS        FAIR      57  35  43 W14       30.23R
SARATOGA       FAIR      55  37  50 S8        30.25S
LARAMIE        FAIR      55  37  50 S10       30.24S
CHEYENNE       FAIR      64  39  39 VRB3      30.20R
TORRINGTON     FAIR      58  48  69 CALM      30.12S
PINE BLUFFS    FAIR      64  43  45 W6        30.17F

$$




USA.gov is the U.S. government's official web portal to all federal, state and local government web resources and services.